Franklin, PA

2:03 AM EST on November 13, 2019 (GMT -0500)
Venango Regional

Weather History for KFKL - September, 2019

Change the Weather History Date:

Thursday, September 19, 2019

  Actual Average Record
Temperature  
Mean Temperature 59 °F -  
Max Temperature 72 °F 72 °F 90 °F (1935)
Min Temperature 46 °F 50 °F 33 °F (1937)
Degree Days  
Heating Degree Days 6    
Growing Degree Days 9 (Base 50)    
Moisture  
Dew Point 49 °F    
Average Humidity 68    
Maximum Humidity 93    
Minimum Humidity 47    
Precipitation  
Precipitation 0.04 in - - ()
Sea Level Pressure  
Sea Level Pressure 30.27 in    
Wind  
Wind Speed 7 mph (SE)    
Max Wind Speed 14 mph    
Max Gust Speed -    
Visibility 9 miles    
Events      
Averages and records for this station are not official NWS values.
T = Trace of Precipitation, MM = Missing Value Source: NWS Daily Summary

Daily Weather History Graph

Daily Weather History Graph

Search for Another Location

Airport or City:

Astronomy

Sep. 19, 2019 Rise Set
Actual Time 7:03 AM EDT 7:22 PM EDT
Civil Twilight 6:35 AM EDT 7:49 PM EDT
Nautical Twilight 6:03 AM EDT 8:22 PM EDT
Astronomical Twilight 5:30 AM EDT 8:55 PM EDT
Moon 10:26 PM EDT (9/19) 12:08 PM EDT (9/19)
Length of Visible Light 13h 13m
Length of Day
12h 18m
Waning Gibbous, 74% of the Moon is Illuminated
Sep 19
Waning Gibbous
Sep 21
Last Quarter
Sep 28
New
Oct 5
First Quarter
Oct 13
Full

Hourly Weather History & Observations

Time (EDT) Temp. Windchill Dew Point Humidity Pressure Visibility Wind Dir Wind Speed Gust Speed Precip Events Conditions
12:56 AM 55.0 °F - 45.0 °F 69% 30.26 in 10.0 mi ESE 4.6 mph - N/A   Clear
1:56 AM 54.0 °F - 45.0 °F 72% 30.27 in 10.0 mi East 4.6 mph - N/A   Clear
2:56 AM 51.1 °F - 44.1 °F 77% 30.26 in 10.0 mi ESE 5.8 mph - N/A   Clear
3:56 AM 51.1 °F - 44.1 °F 77% 30.27 in 10.0 mi East 3.5 mph - N/A   Clear
4:56 AM 46.9 °F - 45.0 °F 93% 30.27 in 10.0 mi ESE 3.5 mph - N/A   Clear
5:56 AM 46.0 °F 43.9 °F 44.1 °F 93% 30.27 in 10.0 mi ESE 4.6 mph - N/A   Clear
6:56 AM 46.0 °F 43.1 °F 44.1 °F 93% 30.29 in 10.0 mi ESE 5.8 mph - N/A   Clear
7:56 AM 51.1 °F - 45.0 °F 80% 30.30 in 10.0 mi ESE 4.6 mph - N/A   Clear
8:56 AM 55.0 °F - 48.0 °F 77% 30.30 in 10.0 mi ESE 6.9 mph - N/A   Clear
9:56 AM 59.0 °F - 50.0 °F 72% 30.31 in 10.0 mi ESE 6.9 mph - N/A   Clear
10:56 AM 63.0 °F - 51.1 °F 65% 30.30 in 10.0 mi South 10.4 mph - N/A   Clear
11:56 AM 66.0 °F - 52.0 °F 60% 30.30 in 10.0 mi SE 13.8 mph - N/A   Clear
11:59 AM 64.4 °F - 51.8 °F 64% 30.30 in 0.8 mi SSE 11.5 mph - N/A   Haze
12:09 PM 66.2 °F - 51.8 °F 60% 30.29 in 2.0 mi South 10.4 mph - N/A   Haze
12:16 PM 66.2 °F - 51.8 °F 60% 30.29 in 10.0 mi SSE 9.2 mph - 0.04 in   Clear
12:56 PM 66.9 °F - 52.0 °F 59% 30.28 in 10.0 mi South 9.2 mph - 0.04 in   Clear
1:56 PM 70.0 °F - 53.1 °F 55% 30.27 in 10.0 mi SE 12.7 mph - N/A   Clear
2:56 PM 71.1 °F - 51.1 °F 49% 30.27 in 10.0 mi SSE 9.2 mph - N/A   Clear
3:56 PM 72.0 °F - 51.1 °F 48% 30.25 in 10.0 mi SSE 11.5 mph - N/A   Clear
4:56 PM 71.1 °F - 50.0 °F 47% 30.25 in 10.0 mi SSE 8.1 mph - N/A   Clear
5:56 PM 70.0 °F - 50.0 °F 49% 30.23 in 10.0 mi SSE 8.1 mph - N/A   Clear
6:56 PM 66.9 °F - 52.0 °F 59% 30.24 in 10.0 mi SSE 4.6 mph - N/A   Clear
7:56 PM 64.0 °F - 51.1 °F 63% 30.24 in 10.0 mi SSE 4.6 mph - N/A   Clear
8:56 PM 62.1 °F - 50.0 °F 65% 30.25 in 10.0 mi SSE 5.8 mph - N/A   Clear
9:56 PM 57.0 °F - 51.1 °F 81% 30.25 in 10.0 mi ESE 6.9 mph - N/A   Clear
10:56 PM 57.0 °F - 50.0 °F 77% 30.25 in 10.0 mi SE 8.1 mph - N/A   Clear
11:56 PM 55.0 °F - 48.9 °F 80% 30.24 in 10.0 mi SE 5.8 mph - N/A   Clear